Find Starlink 37093

NORAD ID: 68194 Int'l Des: 2026-050 Owner: SPXS Country: US Constellation: starlink operational
LEOCIRCULAR

Current View

Loading 3D Globe...

About Starlink 37093

Starlink 37093 (NORAD 68194) is a starlink constellation satellite (v2 mini) launched Mar 14, 2026 by SPXS of US. It operates in LEO, CIRCULAR orbit with a mass of 575.00 kg.

About Starlink 37093

Description loading...

Upcoming Passes

Passes for default location (London). Set your location on the main map for personalized predictions.

Altitude History

Loading altitude history...

Two-Line Element Set

1 68194U 26050AD 26166.16041887 .00018387 00000-0 55390-3 0 9999
2 68194 53.1574 172.7763 0001661 123.1446 236.9716 15.34404328 15625
Epoch: Jun 15, 2026 • Age: 6 hours

Current Status

Altitude 464.0 km
Velocity 7.64 km/s
Sub-Earth Point 1.01°N, 116.98°E
Launch Date Mar 14, 2026
Age 0.2 years
Type internet

Technical Details

Classification Payload
Mass 575.00 kg
Dry Mass 530.00 kg
Total Mass 575.00 kg
Length 0.30 m
Diameter 4.10 m
Span 29.00 m
Shape Box + pan
Manufacturer SPXS
Bus Type Starlink V2MO
Phase Status In Orbit
Owner/State SPXS/US

Most Searched